TimeEDT,TemperatureF,Dew PointF,Humidity,Sea Level PressureIn,VisibilityMPH,Wind Direction,Wind SpeedMPH,Gust SpeedMPH,PrecipitationIn,Events,Conditions,WindDirDegrees,DateUTC
12:53 AM,82.0,75.9,82,30.05,10.0,Calm,Calm,-,N/A,,Clear,0,2013-09-06 04:53:00
1:53 AM,82.0,75.9,82,30.04,10.0,East,4.6,-,N/A,,Partly Cloudy,100,2013-09-06 05:53:00
2:53 AM,82.0,75.9,82,30.03,10.0,ESE,4.6,-,N/A,,Clear,120,2013-09-06 06:53:00
3:53 AM,80.1,75.9,87,30.02,10.0,Calm,Calm,-,N/A,,Clear,0,2013-09-06 07:53:00
4:53 AM,77.0,75.0,94,30.02,10.0,Calm,Calm,-,N/A,,Clear,0,2013-09-06 08:53:00
5:53 AM,75.9,73.9,94,30.03,10.0,WNW,4.6,-,N/A,,Clear,300,2013-09-06 09:53:00
6:53 AM,75.9,75.0,97,30.04,10.0,NW,3.5,-,N/A,,Partly Cloudy,320,2013-09-06 10:53:00
7:53 AM,79.0,77.0,94,30.04,10.0,Calm,Calm,-,N/A,,Clear,0,2013-09-06 11:53:00
8:53 AM,84.0,78.1,82,30.05,10.0,Calm,Calm,-,N/A,,Partly Cloudy,0,2013-09-06 12:53:00
9:23 AM,84.2,75.2,74,30.05,10.0,ENE,4.6,-,N/A,,Scattered Clouds,60,2013-09-06 13:23:00
9:53 AM,86.0,75.9,72,30.05,10.0,Calm,Calm,-,N/A,,Scattered Clouds,0,2013-09-06 13:53:00
10:53 AM,87.1,75.0,67,30.06,10.0,ENE,6.9,-,N/A,,Scattered Clouds,70,2013-09-06 14:53:00
11:53 AM,88.0,75.0,65,30.06,10.0,East,8.1,-,N/A,,Scattered Clouds,90,2013-09-06 15:53:00
12:53 PM,88.0,73.0,61,30.04,10.0,East,8.1,-,N/A,,Scattered Clouds,90,2013-09-06 16:53:00
1:53 PM,89.1,73.0,59,30.01,10.0,ENE,9.2,-,N/A,,Scattered Clouds,70,2013-09-06 17:53:00
2:53 PM,89.1,73.9,61,30.01,10.0,East,11.5,-,N/A,Thunderstorm,Scattered Clouds,80,2013-09-06 18:53:00
3:53 PM,84.9,75.0,72,29.99,10.0,ENE,15.0,-,N/A,Thunderstorm,Clear,70,2013-09-06 19:53:00
4:53 PM,82.9,75.0,77,30.01,10.0,ENE,13.8,-,N/A,,Scattered Clouds,60,2013-09-06 20:53:00
5:44 PM,82.4,75.2,79,30.01,10.0,ENE,11.5,-,N/A,,Partly Cloudy,60,2013-09-06 21:44:00
5:53 PM,82.0,73.9,76,30.00,10.0,NE,9.2,-,N/A,Rain-Thunderstorm,Light Rain,50,2013-09-06 21:53:00
6:53 PM,79.0,75.0,88,29.97,9.0,North,3.5,-,0.01,Rain-Thunderstorm,Light Rain,10,2013-09-06 22:53:00
7:53 PM,79.0,75.9,90,29.99,10.0,West,5.8,-,0.03,Rain,Light Rain,270,2013-09-06 23:53:00
8:53 PM,79.0,77.0,94,30.00,10.0,North,5.8,-,0.00,,Partly Cloudy,350,2013-09-07 00:53:00
9:53 PM,78.1,75.9,93,29.99,10.0,NNW,4.6,-,N/A,,Clear,340,2013-09-07 01:53:00
10:53 PM,78.1,75.9,93,30.01,10.0,West,4.6,-,N/A,,Scattered Clouds,270,2013-09-07 02:53:00
11:53 PM,77.0,75.0,94,30.01,10.0,WNW,3.5,-,N/A,,Clear,300,2013-09-07 03:53:00